Regional Weather Roundup
Issued by NWS Tiyan, Guam

Home | Current Version | Previous Version | Text Only | Print | Product List | Glossary On
Versions: 1 2 3 4 5 6 7 8 9 10 11 12 13 14 15 16 17 18 19 20 21 22 23 24 25 26 27 28
000
ASGM40 PGUM 170212
RWRGUM
WEATHER ROUNDUP FOR THE MARIANAS
NATIONAL WEATHER SERVICE TIYAN GU
1200 PM CHST TUE JAN 17 2017

GUZ001>004-170300-
MARIANA ISLANDS-

CITY           SKY/WX    TMP DP  RH WIND       PRES   REMARKS
GUAM AIRPORT   SUNNY     84  75  74 SE8       29.94F HX  92
ANDERSEN AFB   MOSUNNY   82  75  78 SE10      29.95F
ROTA AIRPORT   PTSUNNY   79  75  89 N7        29.95F
TINIAN AP      PTSUNNY   77  75  94 NE16      29.93F
SAIPAN AP      LGT RAIN  75  75 100 NE15      29.94F

$$





USA.gov is the U.S. government's official web portal to all federal, state and local government web resources and services.